Location: Spruce Knob
(38.6995°N, 79.5330°W)
Time: 23:53:02
(UTC-05:00)

MOZHAYETS 4 - Visible Passes

Search period start: 03 November 2024 00:00
Search period end: 12 November 2024 23:00
Orbit: 649 x 665 km, 98.3° (Epoch: 03 November)

Date Brightness Start Highest point End Pass type
(mag) Time Alt. Az. Time Alt. Az. Time Alt. Az.
04 Nov 9.8 17:43:14 10° N 17:47:08 29° WNW 17:51:01 10° SW visible
05 Nov 10.5 18:13:07 10° NNW 18:15:42 15° WNW 18:18:17 10° W visible
07 Nov 9.3 17:32:43 10° N 17:36:54 37° WNW 17:41:04 10° SW visible
08 Nov 10.4 18:02:16 10° NNW 18:05:28 19° WNW 18:08:41 10° WSW visible
11 Nov 10.0 17:51:27 10° NNW 17:55:07 24° WNW 17:58:47 10° WSW visible
12 Nov 10.6 18:21:34 10° NW 18:23:34 13° WNW 18:25:35 10° W visible
